Location: Worth Mountain WMA
(34.9569°N, 81.4819°W)
Time: 18:17:26
(UTC-04:00)

Helios 1A - Pass Details

Date: 18 August 2017
Orbit: 587 x 603 km, 98.2° (Epoch: 21 September)

Event Time Altitude Azimuth Distance (km) Brightness Sun altitude
Exits shadow 21:11:53 19° 111° (ESE) 1,447 4.3 -12.6°
Maximum altitude 21:13:49 27° 71° (ENE) 1,175 4.1 -13.0°
Drops below altitude 10° 21:17:23 10° 13° (NNE) 1,953 5.8 -13.6°
Sets 21:19:48 0° 1° (N) 2,861 6.8 -14.1°
